TimeCDT,TemperatureF,Dew PointF,Humidity,Sea Level PressureIn,VisibilityMPH,Wind Direction,Wind SpeedMPH,Gust SpeedMPH,PrecipitationIn,Events,Conditions,WindDirDegrees,DateUTC
3:44 AM,33.8,30.2,87,29.90,9.0,NNW,27.6,34.5,0.06,Rain-Thunderstorm,Light Freezing Rain,340,2013-04-10 08:44:00
3:50 AM,33.8,30.2,87,29.86,9.0,NNW,28.8,35.7,0.07,Rain,Light Freezing Rain,340,2013-04-10 08:50:00
3:53 AM,33.1,30.0,89,29.87,8.0,NNW,29.9,38.0,0.07,Rain,Rain,340,2013-04-10 08:53:00
4:02 AM,33.8,28.4,81,29.91,6.0,NNW,24.2,34.5,0.01,Rain,Light Freezing Rain,340,2013-04-10 09:02:00
4:05 AM,33.8,30.2,87,29.90,7.0,NNW,25.3,34.5,0.01,Rain,Light Freezing Rain,340,2013-04-10 09:05:00
4:26 AM,33.8,28.4,81,30.01,8.0,NW,20.7,33.4,0.03,Rain,Rain,310,2013-04-10 09:26:00
4:29 AM,33.8,28.4,81,30.04,7.0,WNW,19.6,33.4,0.04,Rain-Thunderstorm,Light Freezing Rain,290,2013-04-10 09:29:00
5:18 AM,32.0,28.4,87,29.99,10.0,NNW,19.6,33.4,0.00,Rain,Light Freezing Rain,330,2013-04-10 10:18:00
5:28 AM,32.0,28.4,87,30.01,6.0,NNW,15.0,34.5,0.02,Rain,Light Freezing Rain,340,2013-04-10 10:28:00
5:44 AM,32.0,28.4,87,29.97,5.0,NNW,17.3,21.9,0.08,Rain,Light Freezing Rain,330,2013-04-10 10:44:00
5:53 AM,32.0,28.9,88,29.91,4.0,North,26.5,38.0,0.12,Rain,Light Freezing Rain,350,2013-04-10 10:53:00
6:00 AM,32.0,28.4,87,29.90,6.0,North,31.1,39.1,0.00,Rain,Light Freezing Rain,350,2013-04-10 11:00:00
6:29 AM,32.0,28.4,87,29.97,7.0,NNW,21.9,32.2,0.02,Rain,Light Freezing Rain,330,2013-04-10 11:29:00
6:39 AM,32.0,28.4,87,29.98,8.0,NNW,23.0,29.9,0.02,Rain,Light Freezing Rain,330,2013-04-10 11:39:00
6:50 AM,32.0,28.4,87,29.97,9.0,NNW,25.3,31.1,0.03,Rain,Light Freezing Rain,330,2013-04-10 11:50:00
6:51 AM,32.0,28.0,85,29.98,9.0,NNW,25.3,31.1,0.03,Rain,Light Freezing Rain,330,2013-04-10 11:51:00
7:09 AM,30.2,26.6,86,30.00,9.0,NNW,20.7,34.5,0.01,Rain,Light Freezing Rain,340,2013-04-10 12:09:00
7:26 AM,32.0,28.4,87,29.99,5.0,NNW,20.7,27.6,0.04,Rain,Light Freezing Rain,340,2013-04-10 12:26:00
7:45 AM,32.0,28.4,87,29.96,8.0,NNW,25.3,33.4,0.06,Rain,Light Freezing Rain,340,2013-04-10 12:45:00
7:53 AM,32.0,28.0,85,30.01,6.0,NNW,21.9,33.4,0.07,Rain,Light Freezing Rain,340,2013-04-10 12:53:00
8:04 AM,30.2,26.6,86,30.01,8.0,NNW,23.0,32.2,0.01,Rain,Light Freezing Rain,330,2013-04-10 13:04:00
8:08 AM,30.2,26.6,86,30.01,8.0,NNW,25.3,32.2,0.01,Rain,Light Freezing Rain,330,2013-04-10 13:08:00
8:16 AM,30.2,26.6,86,30.01,7.0,NNW,19.6,31.1,0.01,Rain,Light Freezing Rain,340,2013-04-10 13:16:00
8:35 AM,30.2,26.6,86,30.01,8.0,NNW,21.9,-,0.02,Rain,Light Freezing Rain,330,2013-04-10 13:35:00
8:53 AM,30.9,26.1,82,30.06,10.0,NNW,20.7,28.8,0.02,Rain,Light Freezing Rain,330,2013-04-10 13:53:00
9:53 AM,30.0,25.0,82,30.03,10.0,NNW,26.5,32.2,0.00,Rain,Light Freezing Rain,340,2013-04-10 14:53:00
10:00 AM,30.2,24.8,80,30.03,10.0,NNW,24.2,31.1,0.00,Rain-Thunderstorm,Light Freezing Rain,340,2013-04-10 15:00:00
10:15 AM,30.2,24.8,80,30.06,10.0,NNW,19.6,29.9,0.00,Rain,Light Freezing Rain,340,2013-04-10 15:15:00
11:53 AM,33.1,27.0,78,30.06,10.0,NNW,25.3,31.1,N/A,,Overcast,340,2013-04-10 16:53:00
12:53 PM,36.0,28.9,76,30.04,10.0,North,19.6,27.6,N/A,,Overcast,350,2013-04-10 17:53:00
1:53 PM,39.0,30.0,70,30.03,10.0,NNW,20.7,28.8,N/A,,Overcast,340,2013-04-10 18:53:00
2:53 PM,41.0,30.9,67,30.00,10.0,NNW,18.4,26.5,N/A,,Mostly Cloudy,330,2013-04-10 19:53:00
3:11 PM,42.8,30.2,61,29.97,10.0,NNW,17.3,28.8,N/A,,Scattered Clouds,330,2013-04-10 20:11:00
3:53 PM,43.0,33.1,68,29.97,10.0,North,16.1,23.0,N/A,,Mostly Cloudy,360,2013-04-10 20:53:00
4:15 PM,44.6,32.0,61,29.95,10.0,NNW,17.3,24.2,N/A,,Scattered Clouds,340,2013-04-10 21:15:00
4:53 PM,46.0,32.0,58,29.94,10.0,NNW,15.0,-,N/A,,Partly Cloudy,330,2013-04-10 21:53:00
5:53 PM,46.0,30.9,56,29.92,10.0,North,15.0,-,N/A,,Clear,350,2013-04-10 22:53:00
6:53 PM,46.0,30.0,54,29.94,10.0,NNW,10.4,-,N/A,,Clear,340,2013-04-10 23:53:00
7:53 PM,45.0,30.9,58,29.95,10.0,NNW,8.1,-,N/A,,Clear,340,2013-04-11 00:53:00
8:53 PM,41.0,32.0,70,29.97,10.0,NNW,5.8,-,N/A,,Clear,340,2013-04-11 01:53:00
9:53 PM,41.0,32.0,70,29.99,10.0,Calm,Calm,-,N/A,,Clear,0,2013-04-11 02:53:00
10:53 PM,39.9,30.9,70,29.99,10.0,North,5.8,-,N/A,,Clear,350,2013-04-11 03:53:00
11:53 PM,39.0,30.0,70,29.96,10.0,NNW,8.1,-,N/A,,Clear,340,2013-04-11 04:53:00